Regional Weather Roundup
Issued by NWS

Home | Current Version | Previous Version | Text Only | Print | Product List | Glossary On
Versions: 1 2 3 4 5 6 7 8 9 10 11 12 13 14 15 16 17 18 19 20 21 22 23 24 25 26 27 28
000
ASUS44 KLIX 180513
RWRLA
LOUISIANA WEATHER ROUNDUP
NATIONAL WEATHER SERVICE NEW ORLEANS LA
1200 AM CDT FRI AUG 18 2017

NOTE: "FAIR" INDICATES FEW OR NO CLOUDS BELOW 12,000 FEET WITH NO
      SIGNIFICANT WEATHER AND/OR OBSTRUCTIONS TO VISIBILITY.
      SKY/WX - SKY CONDITION AND SIGNIFICANT WEATHER.
      TMP - AIR TEMPERATURE.    DP   - DEWPOINT TEMPERATURE.
      RH  - RELATIVE HUMIDITY.  PRES - PRESSURE.
      HX  - HEAT INDEX.         WCI  - WIND CHILL INDEX.

*  THESE STATIONS ARE NOT NWS OR FAA STATIONS AND ARE NOT UNDER
   NWS QUALITY CONTROL.

LAZ040-048-061>063-065-066-069-180600-
SOUTHEAST LOUISIANA

CITY           SKY/WX    TMP DP  RH WIND       PRES   REMARKS
N.O. INTL ARPT PTCLDY    80  77  90 SW3       30.06R
N.O. LAKEFRONT CLEAR     85  79  82 SW9       30.06R HX  98
N.O. DOWNTOWN* MOCLDY    85  78  80 SW6       30.07R HX  96
RESERVE*       NOT AVBL
SLIDELL        CLEAR     80  78  94 CALM      30.05R
BATON ROUGE    CLEAR     81  76  84 SW3       30.05R
BOOTHVILLE     CLEAR     85  77  77 SW6       30.07R HX  95
BELLE CHASSE   NOT AVBL
BOGALUSA*      FAIR      80  75  84 CALM      30.07S
GALLIANO*      CLEAR     80  75  86 CALM      30.06S
NEW ROADS*     FAIR      79  77  92 CALM      30.05S
GONZALES*      FAIR      79  77  94 CALM      30.06R
HAMMOND*       PTCLDY    77  73  88 NW3       30.06R
HOUMA*         NOT AVBL
PORT FOURCHON* CLEAR     86  75  70 SW5       30.07S HX  95

$$

LAZ041-044-053-054-180600-
SOUTHWEST LOUISIANA

CITY           SKY/WX    TMP DP  RH WIND       PRES   REMARKS
LAKE CHARLES   CLEAR     81  79  94 CALM      30.04S
LAFAYETTE      CLEAR     81  78  91 SW3       30.06R
PATTERSON      CLEAR     79  78  97 CALM      30.07R
SALT POINT       N/A     86  78  77 CALM      30.04R HX  98
NEW IBERIA     PTCLDY    78  75  90 CALM      30.06R
CHENAULT AIRPK CLEAR     78  78  99 CALM      30.05S

$$

LAZ027-028-180600-
CENTRAL LOUISIANA

CITY           SKY/WX    TMP DP  RH WIND       PRES   REMARKS
FORT POLK      CLEAR     78  76  93 S5        30.03F
ALEXANDRIA INT CLEAR     79  78  97 S3        30.02S
ALEXANDRIA     MOCLDY    78  78 100 CALM      30.04S

$$

LAZ001-002-180600-
NORTHWEST LOUISIANA

CITY           SKY/WX    TMP DP  RH WIND       PRES   REMARKS
SHREVEPORT     PTCLDY    78  75  90 CALM      30.01S
BARKSDALE AFB  PTCLDY    77  75  93 CALM      30.01S
DTN SHREVEPORT PTCLDY    80  73  79 CALM      30.01S

$$

LAZ014-016-180600-
NORTHEAST LOUISIANA

CITY           SKY/WX    TMP DP  RH WIND       PRES   REMARKS
MONROE         CLEAR     75  73  93 SE3       30.03S
TALLULAH       CLEAR     76  74  93 CALM      30.03S

$$





USA.gov is the U.S. government's official web portal to all federal, state and local government web resources and services.